Flag for Switzerland Weather past 2 weeks in Vevey, Vaud, Switzerland

Now
64 °F

Mild.


Feels Like: 64 °F
Forecast: 54 / 73 °F
Wind: 8 mph from Southeast

Location: Aigle

Current Time: May 30, 2015 at 12:51:37 AM

Latest Report: May 29, 2015 at 11:00 PM


Visibility: N/A

Pressure: 29.91 "Hg

Humidity: 59%

Dew point: 49 °F

Location of VeveyLocation

Historic Weather in Vevey — Graph

°F

Vevey temperature yesterday

Maximum temperature yesterday: 74 °F (at 5:00 PM)
Minimum temperature yesterday: 48 °F (at 5:00 AM)
Average temperature yesterday: 63 °F

Past Weeks' High & Low Weather Summary

 TemperatureHumidityPressure
High74 °F (May 29, 5:00 PM)98% (May 26, 2:00 AM)30.30 "Hg (May 26, 2:00 AM)
Low42 °F (May 24, 6:00 AM)24% (May 28, 7:00 PM)29.73 "Hg (May 18, 7:00 PM)
Average56 °F70%30.04 "Hg
* Reported Midnight between May 14 and May 15 — May 29 11:00 PM, Vevey, Weather by CustomWeather, © 2015

Note: Actual official high and low records may vary slightly from our data, if they occured in-between our weather recording intervals... More about our weather records

Advertising

Vevey weather history for previous 24 hours

 ConditionsComfort  
Time TempWeatherWind HumidityBarometerVisibility
11:00 PM
Fri, May 29
64 °FMild.8 mph59%29.91 "HgN/A
10:00 PM65 °FMild.5 mph56%29.86 "HgN/A
9:00 PM67 °FMild.5 mph50%29.84 "HgN/A
8:00 PM71 °FScattered clouds.6 mph44%29.82 "Hg19 mi
7:00 PM73 °FMild.8 mph36%29.80 "HgN/A
6:00 PM74 °FMild.8 mph36%29.80 "HgN/A
5:00 PM74 °FPassing clouds.7 mph38%29.80 "Hg25 mi
4:00 PM74 °FMild.10 mph36%29.82 "HgN/A
3:00 PM72 °FMild.12 mph37%29.83 "HgN/A
2:00 PM71 °FMild.8 mph43%29.86 "HgN/A
1:00 PM69 °FMild.8 mph45%29.88 "HgN/A
12:00 PM66 °FMild.8 mph57%29.91 "HgN/A
11:00 AM65 °FPassing clouds.7 mph60%29.92 "Hg25 mi
10:00 AM64 °FMild.1 mph44%29.94 "HgN/A
9:00 AM61 °FRefreshingly cool.3 mph59%29.96 "HgN/A
8:00 AM56 °FSunny.2 mph74%29.97 "Hg22 mi
7:00 AM50 °FCool.2 mph76%29.99 "HgN/A
6:00 AM49 °FCool.1 mph75%30.00 "HgN/A
5:00 AM48 °FPassing clouds.7 mph83%30.01 "Hg16 mi
4:00 AM48 °FCool.3 mph82%30.02 "HgN/A
3:00 AM49 °FCool.5 mph81%30.03 "HgN/A
2:00 AM52 °FCool.5 mph70%30.03 "HgN/A
Weather by CustomWeather, © 2015

See weather overviewHow to use our weather pages